Location: Drocourt
(49.0571°N, 1.7669°E)
Time: 07:50:30
(UTC+00:00)

Meteor 2-2 Rocket - Pass Details

Date: 09 February 2023
Orbit: 853 x 927 km, 81.3° (Epoch: 24 March)

Event Time Altitude Azimuth Distance (km) Brightness Sun altitude
Rises 19:18:08 0° 347° (NNW) 3,444 7.6 -22.5°
Reaches altitude 10° 19:20:33 10° 347° (NNW) 2,509 6.8 -22.9°
Maximum altitude 19:26:15 84° 260° (W) 881 4.2 -23.9°
Drops below altitude 10° 19:32:01 10° 173° (S) 2,533 6.5 -24.8°
Sets 19:34:28 0° 173° (S) 3,479 7.3 -25.2°
